Language: 


Des rapports , des résumés tant et plus, au choix de chacun....


Données statistiques de la station
Quotidien Rapport Décembre 24, 2017 Unités:  Métrique    Anglais   les deux
« Précédent Jour
Suivant Jour »
Quotidien Hebdomadaire Mensuel Annuel Actuel
  Haut: Bas: Moyen:
Température: -17.8 °C -12.9 °C -12.3 °C
Pt de rosée: -17.8 °C -12.8 °C -12.4 °C
Humidité: Humidity % 95 % 97 %
Vitesse du vent: 0 km/h 11.1 km/h 25.6 km/h
Rafales: 0 km/h - -
Vent:- - WSW
Pression: 0 hPa 34533.8 hPa -
Précipitation: 0 mm    
Historical Graphs
 
 
Données statistiques pour Décembre 24, 2017
Heure Température Point de rosée Pression Vent Vitesse du vent Refales Humidité Pluie (taux horaire)
-17.8 °C -17.8 °C 0 hPa Calm     Humidity % 0 mm
00:00 -12.1 °C -12.2 °C 34875.8 hPa West 34.1 km/h 46.3 km/h 98 % 0 mm
00:03 -12 °C -12.2 °C 34875.8 hPa WSW 20.9 km/h 46.3 km/h 98 % 0 mm
00:08 -12 °C -12.2 °C 34875.8 hPa WSW 32.3 km/h 46.3 km/h 98 % 0 mm
00:10 -12 °C -12.2 °C 34875.8 hPa WSW 19.6 km/h 44.6 km/h 98 % 0 mm
00:18 -12.1 °C -12.2 °C 34875.8 hPa WSW 26.2 km/h 39.9 km/h 98 % 0 mm
00:23 -12.1 °C -12.2 °C 34875.8 hPa WSW 20.3 km/h 34.1 km/h 98 % 0 mm
00:24 -12.1 °C -12.2 °C 34875.8 hPa West 38.3 km/h 38.3 km/h 98 % 0 mm
00:29 -12.1 °C -12.2 °C 34875.8 hPa WSW 22.5 km/h 38.3 km/h 98 % 0 mm
00:30 -12.1 °C -12.2 °C 34875.8 hPa WSW 37.5 km/h 38.3 km/h 98 % 0 mm
00:31 -12.1 °C -12.2 °C 34875.8 hPa West 26.7 km/h 38.3 km/h 98 % 0 mm
00:36 -12.1 °C -12.2 °C 34875.8 hPa WSW 27.2 km/h 44.1 km/h 98 % 0 mm
00:37 -12.1 °C -12.2 °C 34875.8 hPa WSW 33.2 km/h 44.1 km/h 98 % 0 mm
00:42 -12.1 °C -12.2 °C 34875.8 hPa WSW 26.7 km/h 44.1 km/h 98 % 0 mm
00:43 -12.1 °C -12.2 °C 34875.8 hPa WSW 19.6 km/h 41.2 km/h 98 % 0 mm
00:44 -12.1 °C -12.2 °C 34875.8 hPa WSW 19.2 km/h 41.2 km/h 98 % 0 mm
00:49 -12.1 °C -12.2 °C 34875.8 hPa WSW 28.5 km/h 41.2 km/h 98 % 0 mm
00:54 -12.1 °C -12.2 °C 34875.8 hPa West 19.2 km/h 40.7 km/h 98 % 0 mm
00:59 -12.1 °C -12.2 °C 34875.8 hPa WSW 19.6 km/h 40.7 km/h 98 % 0 mm
01:04 -12.1 °C -12.2 °C 34875.8 hPa WSW 26.2 km/h 32.3 km/h 98 % 0 mm
01:08 -12.1 °C -12.2 °C 34875.8 hPa WSW 26.7 km/h 33.6 km/h 98 % 0 mm
01:10 -12.1 °C -12.2 °C 34875.8 hPa WSW 26.7 km/h 33.6 km/h 98 % 0 mm
01:15 -12.1 °C -12.2 °C 34841.9 hPa West 22.5 km/h 33.6 km/h 98 % 0 mm
01:20 -12.1 °C -12.2 °C 34841.9 hPa WSW 33.2 km/h 37 km/h 98 % 0 mm
01:21 -12.1 °C -12.2 °C 34841.9 hPa WSW 32.3 km/h 37 km/h 98 % 0 mm
01:26 -12.2 °C -12.2 °C 34841.9 hPa West 27.7 km/h 44.6 km/h 98 % 0 mm
01:29 -12.1 °C -12.2 °C 34841.9 hPa WSW 39.4 km/h 44.6 km/h 98 % 0 mm
01:34 -12.1 °C -12.2 °C 34841.9 hPa West 22.5 km/h 44.6 km/h 98 % 0 mm
01:39 -12.1 °C -12.2 °C 34841.9 hPa West 22.5 km/h 39.4 km/h 98 % 0 mm
01:42 -12.1 °C -12.2 °C 34841.9 hPa West 20.9 km/h 39.9 km/h 98 % 0 mm
01:47 -12.1 °C -12.2 °C 34841.9 hPa West 16.3 km/h 39.9 km/h 98 % 0 mm
01:49 -12.1 °C -12.2 °C 34841.9 hPa West 20.9 km/h 39.9 km/h 98 % 0 mm
01:50 -12.1 °C -12.2 °C 34841.9 hPa WSW 19.2 km/h 32.3 km/h 98 % 0 mm
01:55 -12.1 °C -12.2 °C 34841.9 hPa WSW 19.6 km/h 27.2 km/h 98 % 0 mm
02:00 -12.1 °C -12.2 °C 34841.9 hPa WSW 20.3 km/h 26.2 km/h 98 % 0 mm
02:03 -12.1 °C -12.2 °C 34841.9 hPa WSW 11.1 km/h 24.8 km/h 98 % 0 mm
02:06 -12.2 °C -12.2 °C 34841.9 hPa WSW 20.3 km/h 32.3 km/h 98 % 0 mm
02:11 -12.2 °C -12.2 °C 34841.9 hPa WSW 28.5 km/h 33.6 km/h 98 % 0 mm
02:16 -12.2 °C -12.2 °C 34841.9 hPa West 20.9 km/h 33.6 km/h 98 % 0 mm
02:18 -12.2 °C -12.2 °C 34841.9 hPa WSW 26.2 km/h 33.6 km/h 98 % 0 mm
02:23 -12.2 °C -12.2 °C 34841.9 hPa West 20.3 km/h 34.8 km/h 98 % 0 mm
02:24 -12.2 °C -12.2 °C 34841.9 hPa WSW 31.9 km/h 34.8 km/h 98 % 0 mm
02:29 -12.2 °C -12.2 °C 34841.9 hPa WSW 20.3 km/h 34.8 km/h 98 % 0 mm
02:31 -12.2 °C -12.2 °C 34841.9 hPa West 19.2 km/h 31.9 km/h 98 % 0 mm
02:33 -12.2 °C -12.2 °C 34841.9 hPa SW 20.9 km/h 31.9 km/h 98 % 0 mm
02:38 -12.2 °C -12.2 °C 34841.9 hPa WSW 19.6 km/h 31.4 km/h 98 % 0 mm
02:40 -12.2 °C -12.2 °C 34841.9 hPa WSW 19.6 km/h 33.2 km/h 98 % 0 mm
02:44 -12.2 °C -12.2 °C 34841.9 hPa WSW 16.3 km/h 33.2 km/h 98 % 0 mm
02:46 -12.2 °C -12.2 °C 34841.9 hPa WSW 19.2 km/h 33.2 km/h 98 % 0 mm
02:52 -12.2 °C -12.2 °C 34841.9 hPa WSW 15 km/h 26.7 km/h 98 % 0 mm
02:55 -12.2 °C -12.2 °C 34841.9 hPa WSW 14 km/h 25.4 km/h 98 % 0 mm
03:00 -12.2 °C -12.2 °C 34841.9 hPa WSW 19.2 km/h 24.8 km/h 98 % 0 mm
03:05 -12.2 °C -12.2 °C 34841.9 hPa WSW 22 km/h 25.4 km/h 98 % 0 mm
03:08 -12.2 °C -12.2 °C 34841.9 hPa WSW 20.3 km/h 33.6 km/h 98 % 0 mm
03:10 -12.2 °C -12.2 °C 34841.9 hPa WSW 20.3 km/h 33.6 km/h 98 % 0 mm
03:16 -12.2 °C -12.2 °C 34841.9 hPa WSW 16.3 km/h 26.7 km/h 98 % 0 mm
03:17 -12.2 °C -12.2 °C 34841.9 hPa WSW 16.9 km/h 26.7 km/h 98 % 0 mm
03:22 -12.2 °C -12.2 °C 34841.9 hPa WSW 16.9 km/h 26.2 km/h 98 % 0 mm
03:23 -12.2 °C -12.2 °C 34841.9 hPa WSW 16.3 km/h 26.2 km/h 98 % 0 mm
03:28 -12.2 °C -12.2 °C 34841.9 hPa WSW 22.5 km/h 22.5 km/h 98 % 0 mm
03:31 -12.2 °C -12.2 °C 34841.9 hPa WSW 27.7 km/h 27.7 km/h 98 % 0 mm
03:32 -12.2 °C -12.2 °C 34841.9 hPa WSW 20.9 km/h 27.7 km/h 98 % 0 mm
03:37 -12.2 °C -12.2 °C 34841.9 hPa WSW 16.9 km/h 30.7 km/h 98 % 0 mm
03:39 -12.2 °C -12.2 °C 34841.9 hPa WSW 15 km/h 30.7 km/h 98 % 0 mm
03:40 -12.2 °C -12.2 °C 34841.9 hPa WSW 14.5 km/h 30.7 km/h 98 % 0 mm
03:45 -12.2 °C -12.2 °C 34841.9 hPa SW 27.2 km/h 27.2 km/h 98 % 0 mm
03:49 -12.2 °C -12.2 °C 34841.9 hPa WSW 11.1 km/h 31.9 km/h 98 % 0 mm
03:52 -12.2 °C -12.2 °C 34841.9 hPa WSW 26.7 km/h 31.9 km/h 98 % 0 mm
03:57 -12.2 °C -12.2 °C 34841.9 hPa WSW 28.5 km/h 38.3 km/h 98 % 0 mm
03:59 -12.2 °C -12.2 °C 34841.9 hPa WSW 26.2 km/h 38.3 km/h 98 % 0 mm
04:04 -12.2 °C -12.2 °C 34841.9 hPa WSW 22 km/h 37 km/h 98 % 0 mm
04:08 -12.2 °C -12.2 °C 34841.9 hPa WSW 31.9 km/h 32.3 km/h 98 % 0 mm
04:13 -12.2 °C -12.2 °C 34841.9 hPa WSW 28.5 km/h 32.3 km/h 98 % 0 mm
04:17 -12.2 °C -12.2 °C 34841.9 hPa WSW 32.3 km/h 32.3 km/h 98 % 0 mm
04:22 -12.2 °C -12.2 °C 34841.9 hPa WSW 30.7 km/h 39.4 km/h 98 % 0 mm
04:23 -12.2 °C -12.2 °C 34841.9 hPa West 26.2 km/h 39.4 km/h 98 % 0 mm
04:27 -12.2 °C -12.2 °C 34808.1 hPa West 31.4 km/h 41.7 km/h 98 % 0 mm
04:29 -12.2 °C -12.2 °C 34808.1 hPa West 27.7 km/h 41.7 km/h 98 % 0 mm
04:34 -12.2 °C -12.2 °C 34808.1 hPa West 27.7 km/h 41.7 km/h 98 % 0 mm
04:39 -12.2 °C -12.2 °C 34808.1 hPa WSW 20.9 km/h 39.4 km/h 98 % 0 mm
04:43 -12.2 °C -12.2 °C 34808.1 hPa WSW 22.5 km/h 36.5 km/h 98 % 0 mm
04:46 -12.2 °C -12.2 °C 34808.1 hPa West 27.7 km/h 36.5 km/h 98 % 0 mm
04:51 -12.2 °C -12.2 °C 34808.1 hPa WSW 19.2 km/h 33.6 km/h 98 % 0 mm
04:53 -12.2 °C -12.2 °C 34808.1 hPa West 27.2 km/h 33.6 km/h 98 % 0 mm
04:58 -12.2 °C -12.2 °C 34808.1 hPa WSW 19.6 km/h 45.9 km/h 98 % 0 mm
04:59 -12.2 °C -12.2 °C 34808.1 hPa WSW 19.6 km/h 45.9 km/h 98 % 0 mm
05:04 -12.2 °C -12.2 °C 34808.1 hPa WSW 26.7 km/h 45.9 km/h 98 % 0 mm
05:09 -12.2 °C -12.2 °C 34808.1 hPa WSW 26.7 km/h 41.7 km/h 98 % 0 mm
05:12 -12.2 °C -12.2 °C 34808.1 hPa West 38.3 km/h 41.7 km/h 98 % 0 mm
05:17 -12.2 °C -12.2 °C 34808.1 hPa WSW 26.2 km/h 41.7 km/h 98 % 0 mm
05:18 -12.2 °C -12.2 °C 34808.1 hPa West 20.9 km/h 38.3 km/h 98 % 0 mm
05:23 -12.2 °C -12.2 °C 34808.1 hPa West 16.3 km/h 40.7 km/h 98 % 0 mm
05:25 -12.2 °C -12.2 °C 34808.1 hPa West 36 km/h 40.7 km/h 98 % 0 mm
05:30 -12.2 °C -12.2 °C 34774.2 hPa WSW 29 km/h 39.9 km/h 98 % 0 mm
05:34 -12.2 °C -12.2 °C 34774.2 hPa WSW 22 km/h 39.9 km/h 98 % 0 mm
05:35 -12.2 °C -12.2 °C 34774.2 hPa WSW 16.3 km/h 39.9 km/h 98 % 0 mm
05:40 -12.2 °C -12.2 °C 34740.4 hPa WSW 32.3 km/h 40.7 km/h 98 % 0 mm
05:43 -12.2 °C -12.2 °C 34740.4 hPa WSW 26.7 km/h 40.7 km/h 98 % 0 mm
05:48 -12.2 °C -12.2 °C 34740.4 hPa WSW 26.2 km/h 40.7 km/h 98 % 0 mm
05:50 -12.2 °C -12.2 °C 34740.4 hPa WSW 22 km/h 40.7 km/h 98 % 0 mm
05:54 -12.2 °C -12.2 °C 34740.4 hPa WSW 22 km/h 33.6 km/h 98 % 0 mm
05:56 -12.2 °C -12.2 °C 34740.4 hPa West 39.4 km/h 39.4 km/h 98 % 0 mm
06:01 -12.2 °C -12.2 °C 34774.2 hPa WSW 27.7 km/h 44.1 km/h 98 % 0 mm
06:06 -12.2 °C -12.2 °C 34774.2 hPa West 33.2 km/h 57.9 km/h 98 % 0 mm
06:12 -12.2 °C -12.2 °C 34740.4 hPa WSW 32.3 km/h 57.9 km/h 97 % 0 mm
06:13 -12.2 °C -12.2 °C 34740.4 hPa West 22.5 km/h 50.5 km/h 97 % 0 mm
06:18 -12.2 °C -12.2 °C 34740.4 hPa West 22 km/h 40.7 km/h 97 % 0 mm
06:20 -12.2 °C -12.2 °C 34740.4 hPa WSW 20.3 km/h 40.7 km/h 97 % 0 mm
06:23 -12.2 °C -12.2 °C 34740.4 hPa WSW 44.1 km/h 51.5 km/h 97 % 0 mm
06:27 -12.2 °C -12.2 °C 34740.4 hPa WSW 27.7 km/h 51.5 km/h 97 % 0 mm
06:32 -12.2 °C -12.2 °C 34740.4 hPa SW 28.5 km/h 51.5 km/h 97 % 0 mm
06:37 -12.2 °C -12.2 °C 34740.4 hPa WSW 37.5 km/h 56.6 km/h 97 % 0 mm
06:41 -12.2 °C -12.2 °C 34740.4 hPa WSW 20.9 km/h 56.6 km/h 97 % 0 mm
06:42 -12.2 °C -12.2 °C 34740.4 hPa West 28.5 km/h 56.6 km/h 97 % 0 mm
06:47 -12.2 °C -12.2 °C 34740.4 hPa WSW 34.1 km/h 45.9 km/h 97 % 0 mm
06:48 -12.2 °C -12.2 °C 34740.4 hPa WSW 50.5 km/h 50.5 km/h 97 % 0 mm
06:52 -12.2 °C -12.2 °C 34740.4 hPa WSW 43 km/h 52 km/h 97 % 0 mm
06:57 -12.2 °C -12.2 °C 34774.2 hPa West 46.3 km/h 52 km/h 98 % 0 mm
07:00 -12.2 °C -12.2 °C 34774.2 hPa West 44.6 km/h 50.5 km/h 98 % 0 mm
07:05 -12.2 °C -12.2 °C 34774.2 hPa West 28.5 km/h 48.1 km/h 98 % 0 mm
07:06 -12.2 °C -12.2 °C 34774.2 hPa West 28.5 km/h 48.1 km/h 98 % 0 mm
07:11 -12.2 °C -12.2 °C 34774.2 hPa WSW 36.5 km/h 51 km/h 98 % 0 mm
07:17 -12.1 °C -12.2 °C 34774.2 hPa West 41.2 km/h 53.3 km/h 97 % 0 mm
07:20 -12.1 °C -12.2 °C 34774.2 hPa WSW 16.3 km/h 53.3 km/h 97 % 0 mm
07:25 -12.1 °C -12.2 °C 34774.2 hPa WSW 27.7 km/h 53.3 km/h 97 % 0 mm
07:30 -12.1 °C -12.2 °C 34774.2 hPa WSW 27.7 km/h 44.1 km/h 97 % 0 mm
07:31 -12.1 °C -12.2 °C 34774.2 hPa West 28.5 km/h 44.1 km/h 97 % 0 mm
07:35 -12.1 °C -12.2 °C 34774.2 hPa WSW 34.8 km/h 44.1 km/h 97 % 0 mm
07:37 -12.1 °C -12.2 °C 34774.2 hPa WSW 32.3 km/h 44.1 km/h 97 % 0 mm
07:40 -12.1 °C -12.2 °C 34774.2 hPa West 28.5 km/h 37.5 km/h 97 % 0 mm
07:42 -12.1 °C -12.2 °C 34740.4 hPa West 27.7 km/h 37.5 km/h 97 % 0 mm
07:47 -12.1 °C -12.2 °C 34740.4 hPa West 26.2 km/h 39.4 km/h 97 % 0 mm
07:48 -12.1 °C -12.2 °C 34740.4 hPa WSW 19.6 km/h 39.4 km/h 97 % 0 mm
07:53 -12.1 °C -12.2 °C 34740.4 hPa WSW 27.2 km/h 39.4 km/h 97 % 0 mm
07:58 -12.1 °C -12.2 °C 34774.2 hPa WSW 33.2 km/h 37.5 km/h 97 % 0 mm
07:59 -12.1 °C -12.2 °C 34774.2 hPa West 22.5 km/h 37.5 km/h 97 % 0 mm
08:04 -12.1 °C -12.2 °C 34774.2 hPa SW 33.6 km/h 51.5 km/h 97 % 0 mm
08:05 -12.1 °C -12.2 °C 34774.2 hPa West 31.4 km/h 51.5 km/h 97 % 0 mm
08:10 -12.1 °C -12.2 °C 34774.2 hPa WNW 22 km/h 51.5 km/h 97 % 0 mm
08:12 -12.1 °C -12.2 °C 34774.2 hPa WSW 33.6 km/h 34.1 km/h 97 % 0 mm
08:15 -12.1 °C -12.2 °C 34774.2 hPa WSW 24.3 km/h 39.4 km/h 96 % 0 mm
08:18 -12.1 °C -12.2 °C 34774.2 hPa West 33.2 km/h 39.4 km/h 96 % 0 mm
08:22 -12.1 °C -12.2 °C 34774.2 hPa West 19.2 km/h 39.4 km/h 96 % 0 mm
08:24 -12.1 °C -12.2 °C 34774.2 hPa West 31.9 km/h 38.3 km/h 96 % 0 mm
08:29 -12.1 °C -12.2 °C 34774.2 hPa WSW 27.7 km/h 36 km/h 96 % 0 mm
08:30 -12.1 °C -12.2 °C 34774.2 hPa WSW 33.2 km/h 36 km/h 96 % 0 mm
08:35 -12.1 °C -12.2 °C 34774.2 hPa WSW 27.2 km/h 42.2 km/h 97 % 0 mm
08:37 -12.1 °C -12.2 °C 34774.2 hPa WSW 37.5 km/h 42.2 km/h 97 % 0 mm
08:41 -12.1 °C -12.2 °C 34774.2 hPa WSW 33.6 km/h 39.4 km/h 97 % 0 mm
08:43 -12.1 °C -12.2 °C 34774.2 hPa WSW 26.2 km/h 39.4 km/h 97 % 0 mm
08:45 -12.1 °C -12.2 °C 34774.2 hPa WSW 25.4 km/h 39.4 km/h 97 % 0 mm
08:50 -12.1 °C -12.2 °C 34774.2 hPa West 33.6 km/h 36 km/h 97 % 0 mm
08:51 -12.1 °C -12.2 °C 34774.2 hPa WSW 29 km/h 34.8 km/h 97 % 0 mm
08:52 -12.1 °C -12.2 °C 34774.2 hPa West 23 km/h 34.1 km/h 97 % 0 mm
08:59 -12.1 °C -12.2 °C 34740.4 hPa WSW 26.7 km/h 44.6 km/h 97 % 0 mm
09:04 -12.1 °C -12.2 °C 34740.4 hPa West 22 km/h 44.6 km/h 97 % 0 mm
09:05 -12.1 °C -12.2 °C 34740.4 hPa WSW 27.2 km/h 44.6 km/h 97 % 0 mm
09:09 -12.1 °C -12.2 °C 34740.4 hPa WSW 25.4 km/h 39.9 km/h 97 % 0 mm
09:12 -12.1 °C -12.2 °C 34774.2 hPa WSW 35.2 km/h 42.2 km/h 97 % 0 mm
09:17 -12.1 °C -12.2 °C 34774.2 hPa West 39.9 km/h 44.1 km/h 97 % 0 mm
09:18 -12.1 °C -12.2 °C 34774.2 hPa WSW 26.7 km/h 44.1 km/h 97 % 0 mm
09:22 -12.1 °C -12.2 °C 34774.2 hPa WSW 26.2 km/h 44.1 km/h 97 % 0 mm
09:23 -12.1 °C -12.2 °C 34774.2 hPa WSW 36.5 km/h 42.2 km/h 97 % 0 mm
09:28 -12 °C -12.2 °C 34774.2 hPa WSW 30.7 km/h 42.2 km/h 97 % 0 mm
09:30 -12 °C -12.2 °C 34774.2 hPa WSW 23 km/h 42.2 km/h 97 % 0 mm
09:35 -12 °C -12.2 °C 34774.2 hPa West 20.3 km/h 34.1 km/h 97 % 0 mm
09:37 -12 °C -12.2 °C 34774.2 hPa WSW 23 km/h 32.3 km/h 97 % 0 mm
09:42 -12.1 °C -12.2 °C 34774.2 hPa West 22 km/h 32.3 km/h 97 % 0 mm
09:44 -12.1 °C -12.2 °C 34774.2 hPa WSW 32.3 km/h 33.6 km/h 97 % 0 mm
09:47 -12.1 °C -12.2 °C 34774.2 hPa WSW 22 km/h 33.6 km/h 98 % 0 mm
09:52 -12.1 °C -12.2 °C 34774.2 hPa WSW 26.2 km/h 40.7 km/h 98 % 0 mm
09:56 -12.1 °C -12.2 °C 34774.2 hPa WSW 22.5 km/h 40.7 km/h 98 % 0 mm
10:01 -12.1 °C -12.2 °C 34774.2 hPa WSW 25.4 km/h 37.5 km/h 98 % 0 mm
10:06 -12.1 °C -12.2 °C 34774.2 hPa WSW 32.3 km/h 38.3 km/h 98 % 0 mm
10:07 -12.1 °C -12.2 °C 34774.2 hPa WSW 25.4 km/h 38.3 km/h 98 % 0 mm
10:12 -12.1 °C -12.2 °C 34774.2 hPa WSW 19.2 km/h 38.3 km/h 98 % 0 mm
10:13 -12.1 °C -12.2 °C 34774.2 hPa WSW 22 km/h 38.3 km/h 98 % 0 mm
10:18 -12.1 °C -12.2 °C 34774.2 hPa WSW 31.9 km/h 34.8 km/h 98 % 0 mm
10:20 -12.1 °C -12.2 °C 34774.2 hPa SW 27.2 km/h 34.8 km/h 98 % 0 mm
10:21 -12.1 °C -12.2 °C 34774.2 hPa WSW 16.9 km/h 34.8 km/h 98 % 0 mm
10:26 -12.1 °C -12.2 °C 34774.2 hPa WSW 27.7 km/h 34.8 km/h 98 % 0 mm
10:33 -12.1 °C -12.2 °C 34774.2 hPa WSW 33.2 km/h 38.3 km/h 98 % 0 mm
10:34 -12.1 °C -12.2 °C 34774.2 hPa SW 20.3 km/h 38.3 km/h 98 % 0 mm
10:39 -12.1 °C -12.2 °C 34774.2 hPa WSW 27.7 km/h 38.3 km/h 98 % 0 mm
10:41 -12.1 °C -12.2 °C 34774.2 hPa WSW 26.2 km/h 38.3 km/h 98 % 0 mm
10:46 -12.1 °C -12.2 °C 34774.2 hPa WSW 34.1 km/h 43 km/h 98 % 0 mm
10:47 -12.1 °C -12.2 °C 34774.2 hPa SW 20.3 km/h 43 km/h 98 % 0 mm
10:49 -12.1 °C -12.2 °C 34774.2 hPa WSW 33.6 km/h 43 km/h 98 % 0 mm
10:54 -12.1 °C -12.2 °C 34774.2 hPa WSW 34.1 km/h 39.4 km/h 98 % 0 mm
10:55 -12.1 °C -12.2 °C 34774.2 hPa WSW 33.2 km/h 39.4 km/h 98 % 0 mm
11:00 -12.1 °C -12.2 °C 34774.2 hPa WSW 27.7 km/h 44.1 km/h 98 % 0 mm
11:05 -12.1 °C -12.2 °C 34774.2 hPa WSW 33.6 km/h 44.1 km/h 98 % 0 mm
11:10 -12.1 °C -12.2 °C 34774.2 hPa WSW 24.8 km/h 39.9 km/h 98 % 0 mm
11:12 -12.1 °C -12.2 °C 34774.2 hPa WSW 33.6 km/h 39.9 km/h 98 % 0 mm
11:14 -12.1 °C -12.2 °C 34774.2 hPa WSW 28.5 km/h 39.4 km/h 98 % 0 mm
11:19 -12 °C -12.2 °C 34774.2 hPa WSW 27.7 km/h 34.1 km/h 98 % 0 mm
11:22 -12 °C -12.2 °C 34774.2 hPa WSW 26.7 km/h 34.1 km/h 98 % 0 mm
11:23 -12 °C -12.2 °C 34774.2 hPa WSW 26.7 km/h 34.1 km/h 98 % 0 mm
11:28 -12 °C -12.2 °C 34774.2 hPa WSW 27.7 km/h 45.1 km/h 98 % 0 mm
11:33 -11.9 °C -11.7 °C 34774.2 hPa WSW 33.2 km/h 45.1 km/h 98 % 0 mm
11:38 -11.9 °C -11.7 °C 34774.2 hPa West 24.8 km/h 37.5 km/h 98 % 0 mm
11:43 -11.9 °C -11.7 °C 34774.2 hPa WSW 22.5 km/h 37.5 km/h 98 % 0 mm
11:48 -11.9 °C -11.7 °C 34774.2 hPa WSW 22.5 km/h 43 km/h 98 % 0 mm
11:51 -11.9 °C -11.7 °C 34774.2 hPa WSW 30.7 km/h 43 km/h 98 % 0 mm
11:56 -11.9 °C -11.7 °C 34774.2 hPa WSW 33.6 km/h 38.3 km/h 98 % 0 mm
11:57 -11.9 °C -11.7 °C 34774.2 hPa WSW 27.2 km/h 38.3 km/h 98 % 0 mm
12:02 -11.9 °C -11.7 °C 34774.2 hPa SW 26.2 km/h 39.4 km/h 98 % 0 mm
12:03 -11.9 °C -11.7 °C 34774.2 hPa WSW 26.2 km/h 39.4 km/h 98 % 0 mm
12:08 -11.9 °C -11.7 °C 34774.2 hPa WSW 29 km/h 44.6 km/h 98 % 0 mm
12:09 -11.9 °C -11.7 °C 34774.2 hPa WSW 26.2 km/h 44.6 km/h 98 % 0 mm
12:14 -11.9 °C -11.7 °C 34740.4 hPa WSW 20.9 km/h 46.3 km/h 98 % 0 mm
12:19 -11.9 °C -11.7 °C 34740.4 hPa West 22.5 km/h 46.3 km/h 98 % 0 mm
12:21 -11.9 °C -11.7 °C 34740.4 hPa WSW 26.7 km/h 35.2 km/h 98 % 0 mm
12:25 -11.8 °C -11.7 °C 34740.4 hPa WSW 20.3 km/h 34.1 km/h 98 % 0 mm
12:30 -11.8 °C -11.7 °C 34740.4 hPa WSW 26.2 km/h 36 km/h 98 % 0 mm
12:35 -11.8 °C -11.7 °C 34740.4 hPa WSW 35.2 km/h 39.4 km/h 98 % 0 mm
12:40 -11.8 °C -11.7 °C 34740.4 hPa WSW 27.7 km/h 45.9 km/h 98 % 0 mm
12:45 -11.8 °C -11.7 °C 34740.4 hPa WSW 22.5 km/h 45.9 km/h 98 % 0 mm
12:50 -11.8 °C -11.7 °C 34740.4 hPa WSW 27.7 km/h 39.4 km/h 98 % 0 mm
12:55 -11.8 °C -12.2 °C 34740.4 hPa WSW 25.4 km/h 40.7 km/h 97 % 0 mm
12:56 -11.8 °C -12.2 °C 34740.4 hPa WSW 35.2 km/h 40.7 km/h 97 % 0 mm
13:00 -11.8 °C -12.2 °C 34740.4 hPa WSW 34.1 km/h 43 km/h 97 % 0 mm
13:02 -11.8 °C -12.2 °C 34740.4 hPa WSW 29.5 km/h 43 km/h 97 % 0 mm
13:07 -11.9 °C -12.2 °C 34740.4 hPa WSW 33.6 km/h 41.2 km/h 97 % 0 mm
13:09 -11.9 °C -12.2 °C 34740.4 hPa WSW 39.9 km/h 41.2 km/h 97 % 0 mm
13:14 -11.9 °C -12.2 °C 34740.4 hPa WSW 27.2 km/h 45.9 km/h 96 % 0 mm
13:15 -11.9 °C -12.2 °C 34740.4 hPa West 26.7 km/h 45.9 km/h 96 % 0 mm
13:20 -11.9 °C -12.2 °C 34740.4 hPa WSW 33.6 km/h 45.9 km/h 96 % 0 mm
13:22 -11.9 °C -12.2 °C 34740.4 hPa WSW 33.2 km/h 44.1 km/h 96 % 0 mm
13:23 -11.9 °C -12.2 °C 34740.4 hPa WSW 30.7 km/h 44.1 km/h 96 % 0 mm
13:28 -11.9 °C -12.2 °C 34703.1 hPa WSW 28.5 km/h 51 km/h 96 % 0 mm
13:33 -11.9 °C -12.2 °C 34703.1 hPa WSW 20.3 km/h 51 km/h 96 % 0 mm
13:34 -11.9 °C -12.2 °C 34703.1 hPa WSW 33.2 km/h 51 km/h 96 % 0 mm
13:39 -11.9 °C -12.2 °C 34703.1 hPa SW 19.6 km/h 34.1 km/h 96 % 0 mm
13:40 -11.9 °C -12.2 °C 34703.1 hPa WSW 40.7 km/h 40.7 km/h 96 % 0 mm
13:45 -11.9 °C -12.2 °C 34703.1 hPa WSW 29 km/h 40.7 km/h 96 % 0 mm
13:50 -11.9 °C -12.2 °C 34703.1 hPa West 32.3 km/h 40.7 km/h 96 % 0 mm
13:53 -11.9 °C -12.2 °C 34703.1 hPa WSW 34.8 km/h 39.9 km/h 96 % 0 mm
13:58 -12 °C -12.2 °C 34669.3 hPa WSW 37.5 km/h 46.3 km/h 95 % 0 mm
14:01 -12 °C -12.2 °C 34669.3 hPa WSW 29.5 km/h 46.3 km/h 95 % 0 mm
14:03 -12 °C -12.2 °C 34669.3 hPa WSW 26.7 km/h 46.3 km/h 96 % 0 mm
14:07 -12 °C -12.2 °C 34669.3 hPa WSW 31.4 km/h 45.9 km/h 95 % 0 mm
14:10 -11.9 °C -12.2 °C 34669.3 hPa WSW 26.2 km/h 44.6 km/h 95 % 0 mm
14:12 -11.9 °C -12.2 °C 34669.3 hPa WSW 27.2 km/h 44.6 km/h 95 % 0 mm
14:17 -11.9 °C -12.2 °C 34669.3 hPa WSW 26.2 km/h 43.5 km/h 95 % 0 mm
14:20 -11.9 °C -12.2 °C 34669.3 hPa WSW 26.2 km/h 43.5 km/h 95 % 0 mm
14:25 -11.9 °C -12.2 °C 34669.3 hPa WSW 30.7 km/h 36 km/h 95 % 0 mm
14:26 -11.9 °C -12.2 °C 34669.3 hPa SW 25.4 km/h 36 km/h 95 % 0 mm
14:29 -11.9 °C -12.2 °C 34669.3 hPa WSW 22 km/h 36 km/h 95 % 0 mm
14:33 -12 °C -12.2 °C 34669.3 hPa WSW 28.5 km/h 37.5 km/h 95 % 0 mm
14:38 -12 °C -12.2 °C 34669.3 hPa West 26.7 km/h 44.1 km/h 96 % 0 mm
14:43 -12.1 °C -12.2 °C 34703.1 hPa West 34.1 km/h 44.1 km/h 95 % 0 mm
14:46 -12.1 °C -12.2 °C 34703.1 hPa WSW 20.9 km/h 39.9 km/h 95 % 0 mm
14:51 -12.1 °C -12.2 °C 34703.1 hPa WSW 25.4 km/h 39.9 km/h 95 % 0 mm
14:53 -12.1 °C -12.2 °C 34703.1 hPa SW 23 km/h 39.9 km/h 95 % 0 mm
14:56 -12.1 °C -12.2 °C 34703.1 hPa SW 25.4 km/h 33.2 km/h 95 % 0 mm
15:01 -12.1 °C -12.2 °C 34703.1 hPa SW 22 km/h 36 km/h 95 % 0 mm
15:06 -12.1 °C -12.2 °C 34703.1 hPa SW 34.1 km/h 36 km/h 95 % 0 mm
15:13 -12.1 °C -12.2 °C 34669.3 hPa WSW 24.8 km/h 34.1 km/h 95 % 0 mm
15:18 -12.2 °C -12.8 °C 34669.3 hPa WSW 19.2 km/h 34.1 km/h 95 % 0 mm
15:20 -12.2 °C -12.8 °C 34669.3 hPa WSW 27.2 km/h 33.6 km/h 95 % 0 mm
15:25 -12.2 °C -12.8 °C 34669.3 hPa WSW 22.5 km/h 33.6 km/h 95 % 0 mm
15:28 -12.2 °C -12.8 °C 34669.3 hPa SW 16.3 km/h 33.6 km/h 95 % 0 mm
15:30 -12.2 °C -12.8 °C 34669.3 hPa WSW 31.9 km/h 33.6 km/h 95 % 0 mm
15:37 -12.3 °C -12.8 °C 34669.3 hPa SW 24.3 km/h 44.6 km/h 95 % 0 mm
15:42 -12.3 °C -12.8 °C 34703.1 hPa WSW 36.5 km/h 44.6 km/h 95 % 0 mm
15:47 -12.3 °C -12.8 °C 34703.1 hPa WSW 22 km/h 41.2 km/h 95 % 0 mm
15:50 -12.3 °C -12.8 °C 34703.1 hPa WSW 22.5 km/h 41.2 km/h 96 % 0 mm
15:52 -12.3 °C -12.8 °C 34703.1 hPa WSW 26.7 km/h 34.1 km/h 96 % 0 mm
15:57 -12.4 °C -12.8 °C 34703.1 hPa WSW 33.6 km/h 44.6 km/h 96 % 0 mm
16:00 -12.4 °C -12.8 °C 34703.1 hPa SW 33.6 km/h 44.6 km/h 95 % 0 mm
16:05 -12.4 °C -12.8 °C 34703.1 hPa West 39.9 km/h 51.5 km/h 95 % 0 mm
16:10 -12.5 °C -12.8 °C 34703.1 hPa WSW 37.5 km/h 51.5 km/h 95 % 0 mm
16:11 -12.5 °C -12.8 °C 34703.1 hPa WSW 33.2 km/h 51.5 km/h 95 % 0 mm
16:16 -12.5 °C -12.8 °C 34703.1 hPa WSW 22.5 km/h 39.4 km/h 95 % 0 mm
16:19 -12.6 °C -12.8 °C 34703.1 hPa WSW 27.7 km/h 39.4 km/h 95 % 0 mm
16:21 -12.6 °C -12.8 °C 34703.1 hPa WSW 26.2 km/h 34.1 km/h 95 % 0 mm
16:26 -12.6 °C -12.8 °C 34703.1 hPa WSW 26.2 km/h 34.1 km/h 95 % 0 mm
16:27 -12.6 °C -12.8 °C 34703.1 hPa WSW 15.6 km/h 34.1 km/h 95 % 0 mm
16:29 -12.6 °C -12.8 °C 34703.1 hPa WSW 27.2 km/h 34.1 km/h 95 % 0 mm
16:34 -12.6 °C -12.8 °C 34703.1 hPa WSW 33.2 km/h 39.4 km/h 96 % 0 mm
16:36 -12.6 °C -12.8 °C 34703.1 hPa WSW 26.2 km/h 39.4 km/h 96 % 0 mm
16:37 -12.6 °C -12.8 °C 34703.1 hPa WSW 22 km/h 39.4 km/h 96 % 0 mm
16:42 -12.6 °C -12.8 °C 34703.1 hPa WSW 25.4 km/h 39.4 km/h 96 % 0 mm
16:46 -12.6 °C -12.8 °C 34703.1 hPa West 22 km/h 34.1 km/h 96 % 0 mm
16:51 -12.6 °C -12.8 °C 34703.1 hPa West 30.7 km/h 34.1 km/h 96 % 0 mm
16:53 -12.7 °C -12.8 °C 34703.1 hPa SSW 31.9 km/h 40.7 km/h 96 % 0 mm
17:00 -12.7 °C -12.8 °C 34669.3 hPa WSW 26.7 km/h 40.7 km/h 96 % 0 mm
17:05 -12.7 °C -12.8 °C 34669.3 hPa WSW 27.7 km/h 33.6 km/h 96 % 0 mm
17:06 -12.7 °C -12.8 °C 34669.3 hPa SW 34.8 km/h 34.8 km/h 96 % 0 mm
17:10 -12.7 °C -12.8 °C 34669.3 hPa WSW 29.5 km/h 34.8 km/h 96 % 0 mm
17:12 -12.7 °C -12.8 °C 34669.3 hPa WSW 31.4 km/h 36 km/h 96 % 0 mm
17:17 -12.7 °C -12.8 °C 34669.3 hPa West 28.5 km/h 38.3 km/h 95 % 0 mm
17:22 -12.7 °C -12.8 °C 34669.3 hPa WSW 24.8 km/h 45.9 km/h 95 % 0 mm
17:27 -12.7 °C -12.8 °C 34635.4 hPa SW 38.3 km/h 45.9 km/h 95 % 0 mm
17:29 -12.7 °C -12.8 °C 34635.4 hPa WSW 25.4 km/h 38.3 km/h 95 % 0 mm
17:34 -12.7 °C -12.8 °C 34635.4 hPa SSW 32.3 km/h 43.5 km/h 95 % 0 mm
17:35 -12.7 °C -12.8 °C 34635.4 hPa WSW 26.2 km/h 43.5 km/h 95 % 0 mm
17:40 -12.8 °C -12.8 °C 34635.4 hPa WSW 33.2 km/h 43.5 km/h 96 % 0 mm
17:45 -12.8 °C -12.8 °C 34635.4 hPa SW 26.7 km/h 38.3 km/h 96 % 0 mm
17:48 -12.8 °C -12.8 °C 34635.4 hPa WSW 32.3 km/h 35.2 km/h 97 % 0 mm
17:52 -12.8 °C -12.8 °C 34635.4 hPa SSW 20.9 km/h 35.2 km/h 97 % 0 mm
17:57 -12.8 °C -12.8 °C 34635.4 hPa SSW 27.2 km/h 35.2 km/h 97 % 0 mm
18:02 -12.8 °C -12.8 °C 34635.4 hPa WSW 24.8 km/h 35.2 km/h 97 % 0 mm
18:05 -12.8 °C -12.8 °C 34635.4 hPa West 19.2 km/h 35.2 km/h 97 % 0 mm
18:10 -12.8 °C -12.8 °C 34635.4 hPa SW 27.2 km/h 41.7 km/h 97 % 0 mm
18:11 -12.8 °C -12.8 °C 34635.4 hPa SW 20.3 km/h 41.7 km/h 97 % 0 mm
18:16 -12.8 °C -12.8 °C 34635.4 hPa SW 20.3 km/h 41.7 km/h 97 % 0 mm
18:18 -12.8 °C -12.8 °C 34635.4 hPa SW 33.6 km/h 41.7 km/h 97 % 0 mm
18:23 -12.8 °C -12.8 °C 34635.4 hPa WSW 26.7 km/h 34.1 km/h 97 % 0 mm
18:24 -12.8 °C -12.8 °C 34635.4 hPa SW 36.5 km/h 36.5 km/h 97 % 0 mm
18:29 -12.8 °C -12.8 °C 34635.4 hPa SW 19.2 km/h 36.5 km/h 97 % 0 mm
18:34 -12.8 °C -12.8 °C 34635.4 hPa WSW 27.2 km/h 36.5 km/h 97 % 0 mm
18:42 -12.9 °C -12.8 °C 34601.5 hPa SSW 26.7 km/h 39.4 km/h 98 % 0 mm
18:43 -12.9 °C -12.8 °C 34601.5 hPa WSW 29.5 km/h 39.4 km/h 98 % 0 mm
18:44 -12.9 °C -12.8 °C 34601.5 hPa WSW 33.6 km/h 39.4 km/h 98 % 0 mm
18:49 -12.9 °C -12.8 °C 34601.5 hPa WSW 20.3 km/h 34.1 km/h 98 % 0 mm
18:50 -12.9 °C -12.8 °C 34601.5 hPa SW 34.1 km/h 34.1 km/h 98 % 0 mm
18:55 -12.9 °C -12.8 °C 34601.5 hPa WSW 16.9 km/h 34.1 km/h 98 % 0 mm
19:00 -12.9 °C -12.8 °C 34601.5 hPa SW 19.6 km/h 32.3 km/h 98 % 0 mm
19:03 -12.9 °C -12.8 °C 34601.5 hPa SW 15 km/h 27.7 km/h 98 % 0 mm
19:08 -12.9 °C -12.8 °C 34601.5 hPa WSW 22.5 km/h 27.2 km/h 98 % 0 mm
19:11 -12.9 °C -12.8 °C 34601.5 hPa SSW 19.2 km/h 27.2 km/h 98 % 0 mm
19:14 -12.9 °C -12.8 °C 34601.5 hPa SW 16.9 km/h 27.2 km/h 98 % 0 mm
19:19 -12.9 °C -12.8 °C 34601.5 hPa WSW 19.6 km/h 25.4 km/h 98 % 0 mm
19:23 -12.9 °C -12.8 °C 34601.5 hPa WSW 16.3 km/h 29 km/h 98 % 0 mm
19:28 -12.9 °C -12.8 °C 34635.4 hPa SW 16.9 km/h 29 km/h 98 % 0 mm
19:29 -12.9 °C -12.8 °C 34635.4 hPa SSW 27.7 km/h 29 km/h 98 % 0 mm
19:34 -12.8 °C -12.8 °C 34635.4 hPa WSW 18.7 km/h 34.1 km/h 98 % 0 mm
19:36 -12.8 °C -12.8 °C 34635.4 hPa WSW 15.6 km/h 34.1 km/h 98 % 0 mm
19:41 -12.8 °C -12.8 °C 34635.4 hPa WSW 22 km/h 34.1 km/h 98 % 0 mm
19:46 -12.8 °C -12.8 °C 34635.4 hPa SW 22.5 km/h 34.8 km/h 98 % 0 mm
19:47 -12.8 °C -12.8 °C 34635.4 hPa WSW 26.2 km/h 34.8 km/h 98 % 0 mm
19:48 -12.8 °C -12.8 °C 34635.4 hPa WSW 22 km/h 34.8 km/h 98 % 0 mm
19:52 -12.8 °C -12.8 °C 34635.4 hPa SW 28.5 km/h 34.8 km/h 98 % 0 mm
19:57 -12.8 °C -12.8 °C 34669.3 hPa WSW 16.3 km/h 29 km/h 98 % 0 mm
19:58 -12.8 °C -12.8 °C 34669.3 hPa SW 20.9 km/h 29 km/h 98 % 0 mm
20:03 -12.8 °C -12.8 °C 34669.3 hPa WSW 25.4 km/h 29 km/h 98 % 0 mm
20:04 -12.8 °C -12.8 °C 34669.3 hPa SSW 16.9 km/h 29 km/h 98 % 0 mm
20:05 -12.8 °C -12.8 °C 34669.3 hPa SSW 15 km/h 29 km/h 98 % 0 mm
20:10 -12.8 °C -12.8 °C 34669.3 hPa SW 16.3 km/h 28.5 km/h 98 % 0 mm
20:12 -12.8 °C -12.8 °C 34635.4 hPa WSW 16.9 km/h 26.2 km/h 98 % 0 mm
20:13 -12.8 °C -12.8 °C 34635.4 hPa SSW 18.7 km/h 26.2 km/h 98 % 0 mm
20:18 -12.8 °C -12.8 °C 34635.4 hPa SSW 16.3 km/h 25.4 km/h 98 % 0 mm
20:23 -12.8 °C -12.8 °C 34635.4 hPa WSW 18.7 km/h 25.4 km/h 98 % 0 mm
20:24 -12.8 °C -12.8 °C 34635.4 hPa SW 15 km/h 26.7 km/h 98 % 0 mm
20:26 -12.9 °C -12.8 °C 34635.4 hPa SW 20.3 km/h 26.7 km/h 98 % 0 mm
20:34 -12.9 °C -12.8 °C 34635.4 hPa SW 20.9 km/h 27.2 km/h 98 % 0 mm
20:39 -12.9 °C -12.8 °C 34635.4 hPa SSW 19.2 km/h 27.2 km/h 98 % 0 mm
20:43 -12.9 °C -12.8 °C 34601.5 hPa SSW 20.3 km/h 27.2 km/h 98 % 0 mm
20:47 -12.9 °C -12.8 °C 34601.5 hPa WSW 14 km/h 34.1 km/h 98 % 0 mm
20:50 -12.9 °C -12.8 °C 34601.5 hPa SW 18.7 km/h 34.1 km/h 98 % 0 mm
20:56 -12.9 °C -12.8 °C 34601.5 hPa SW 22 km/h 27.2 km/h 98 % 0 mm
21:01 -12.9 °C -12.8 °C 34601.5 hPa SSW 22.5 km/h 28.5 km/h 98 % 0 mm
21:03 -12.9 °C -12.8 °C 34601.5 hPa WSW 19.6 km/h 28.5 km/h 98 % 0 mm
21:08 -12.9 °C -12.8 °C 34601.5 hPa WSW 20.3 km/h 27.2 km/h 98 % 0 mm
21:10 -12.9 °C -12.8 °C 34601.5 hPa SSW 15 km/h 26.2 km/h 98 % 0 mm
21:15 -12.8 °C -12.8 °C 34601.5 hPa SSW 20.3 km/h 33.6 km/h 98 % 0 mm
21:19 -12.8 °C -12.8 °C 34601.5 hPa SW 22.5 km/h 33.6 km/h 98 % 0 mm
21:24 -12.8 °C -12.8 °C 34601.5 hPa SW 32.3 km/h 32.3 km/h 98 % 0 mm
21:27 -12.8 °C -12.8 °C 34601.5 hPa SW 18.7 km/h 32.3 km/h 98 % 0 mm
21:32 -12.8 °C -12.8 °C 34601.5 hPa SSW 20.9 km/h 32.3 km/h 98 % 0 mm
21:33 -12.8 °C -12.8 °C 34601.5 hPa SW 19.6 km/h 32.3 km/h 98 % 0 mm
21:34 -12.8 °C -12.8 °C 34601.5 hPa SW 16.3 km/h 32.3 km/h 98 % 0 mm
21:39 -12.8 °C -12.8 °C 34601.5 hPa SW 22 km/h 31.9 km/h 98 % 0 mm
21:44 -12.7 °C -12.8 °C 34601.5 hPa SSW 20.3 km/h 31.9 km/h 98 % 0 mm
21:49 -12.7 °C -12.8 °C 34601.5 hPa SSW 19.6 km/h 31.9 km/h 98 % 0 mm
21:54 -12.8 °C -12.8 °C 34601.5 hPa SW 20.3 km/h 27.7 km/h 98 % 0 mm
21:55 -12.8 °C -12.8 °C 34601.5 hPa WSW 19.6 km/h 27.7 km/h 98 % 0 mm
21:59 -12.8 °C -12.8 °C 34567.7 hPa SSW 18.7 km/h 25.4 km/h 98 % 0 mm
22:04 -12.8 °C -12.8 °C 34567.7 hPa SSW 25.4 km/h 33.6 km/h 98 % 0 mm
22:09 -12.8 °C -12.8 °C 34567.7 hPa WSW 22 km/h 33.6 km/h 98 % 0 mm
22:14 -12.8 °C -12.8 °C 34601.5 hPa SSW 33.2 km/h 33.6 km/h 98 % 0 mm
22:15 -12.8 °C -12.8 °C 34601.5 hPa SW 20.9 km/h 33.6 km/h 98 % 0 mm
22:17 -12.8 °C -12.8 °C 34601.5 hPa SSW 20.3 km/h 33.6 km/h 98 % 0 mm
22:21 -12.8 °C -12.8 °C 34601.5 hPa WSW 18.7 km/h 33.2 km/h 98 % 0 mm
22:27 -12.8 °C -12.8 °C 34601.5 hPa SW 20.9 km/h 33.2 km/h 98 % 0 mm
22:31 -12.8 °C -12.8 °C 34601.5 hPa WSW 20.9 km/h 33.2 km/h 98 % 0 mm
22:36 -12.7 °C -12.8 °C 34601.5 hPa SSW 22 km/h 33.2 km/h 98 % 0 mm
22:41 -12.7 °C -12.8 °C 34567.7 hPa SW 22 km/h 33.2 km/h 98 % 0 mm
22:44 -12.7 °C -12.8 °C 34567.7 hPa SSW 25.4 km/h 33.2 km/h 98 % 0 mm
22:48 -12.7 °C -12.8 °C 34567.7 hPa SW 19.6 km/h 27.2 km/h 98 % 0 mm
22:53 -12.7 °C -12.8 °C 34567.7 hPa SSW 16.9 km/h 31.9 km/h 98 % 0 mm
22:56 -12.7 °C -12.8 °C 34567.7 hPa SW 15 km/h 31.9 km/h 98 % 0 mm
22:59 -12.7 °C -12.8 °C 34567.7 hPa SW 19.6 km/h 31.9 km/h 98 % 0 mm
23:04 -12.7 °C -12.8 °C 34567.7 hPa SW 27.2 km/h 28.5 km/h 98 % 0 mm
23:06 -12.7 °C -12.8 °C 34567.7 hPa SW 28.5 km/h 28.5 km/h 98 % 0 mm
23:11 -12.7 °C -12.8 °C 34567.7 hPa SSW 20.3 km/h 28.5 km/h 98 % 0 mm
23:16 -12.7 °C -12.8 °C 34567.7 hPa WSW 19.2 km/h 28.5 km/h 98 % 0 mm
23:17 -12.7 °C -12.8 °C 34567.7 hPa SW 16.9 km/h 28.5 km/h 98 % 0 mm
23:19 -12.7 °C -12.8 °C 34567.7 hPa WSW 16.9 km/h 28.5 km/h 98 % 0 mm
23:24 -12.7 °C -12.8 °C 34567.7 hPa SW 28.5 km/h 28.5 km/h 98 % 0 mm
23:29 -12.7 °C -12.8 °C 34567.7 hPa WSW 24.8 km/h 32.3 km/h 98 % 0 mm
23:32 -12.7 °C -12.8 °C 34567.7 hPa WSW 20.3 km/h 32.3 km/h 98 % 0 mm
23:37 -12.7 °C -12.8 °C 34567.7 hPa WSW 20.9 km/h 32.3 km/h 98 % 0 mm
23:39 -12.7 °C -12.8 °C 34567.7 hPa SW 18.7 km/h 26.7 km/h 98 % 0 mm
23:40 -12.7 °C -12.8 °C 34567.7 hPa SW 28.5 km/h 33.6 km/h 98 % 0 mm
23:45 -12.7 °C -12.8 °C 34533.8 hPa SW 19.2 km/h 34.8 km/h 98 % 0 mm
23:46 -12.7 °C -12.8 °C 34533.8 hPa SW 26.2 km/h 34.8 km/h 98 % 0 mm
23:52 -12.7 °C -12.8 °C 34533.8 hPa WSW 24.3 km/h 34.8 km/h 98 % 0 mm
23:57 -12.7 °C -12.8 °C 34533.8 hPa SW 22 km/h 27.2 km/h 98 % 0 mm
23:59 -12.7 °C -12.8 °C 34533.8 hPa SW 23 km/h 27.2 km/h 98 % 0 mm
Le Gheer Warneton
Courtoisie de Weather Underground - 2.75 mb

Mise a jour : 18/02/2018 20:52:11
Généré par Cumulus 1.9.4 (1099)